Regional Weather Roundup
Issued by NWS Albany, NY

Home | Current Version | Previous Version | Text Only | Print | Product List | Glossary On
Versions: 1 2 3 4 5 6 7 8 9 10 11 12 13 14 15 16 17 18 19 20 21 22 23 24 25 26 27 28 29 30 31 32 33 34 35 36 37 38 39 40 41 42 43 44 45 46 47 48
000
ASUS41 KALY 220110
RWRALY

NEW YORK STATE HOURLY WEATHER ROUNDUP
NATIONAL WEATHER SERVICE ALBANY NY
800 PM EST SUN DEC 21 2014

NOTE: "FAIR" INDICATES FEW OR NO CLOUDS BELOW 12,000 FEET WITH NO
SIGNIFICANT WEATHER AND/OR NO OBSTRUCTIONS TO VISIBILITY.

NYZ032-033-038>043-046>054-057>066-NYZ062>081-220200-
EAST


CITY           SKY/WX    TMP DP  RH WIND       PRES   REMARKS
ALBANY         CLOUDY    31  23  72 CALM      30.37S
GLENS FALLS    CLOUDY    28  22  78 E3        30.37R
POUGHKEEPSIE   CLOUDY    33  26  75 VRB3      30.35S
NEWBURGH       CLOUDY    91  28  10 CALM      30.34S
MONTGOMERY     CLOUDY    32  27  81 N6        30.33S WCI  26
WHITE PLAINS   CLOUDY    32  29  88 NW7       30.31S WCI  26
ISLIP          CLOUDY    36  33  89 N10       30.30S WCI  28
NEW YORK CITY  CLOUDY    35  29  78 N7        30.33F WCI  29
$$

NYZ005>009-017-018-044>046-055-056-220200-
CENTRAL


CITY           SKY/WX    TMP DP  RH WIND       PRES   REMARKS
FULTON         CLOUDY    30  26  85 E3        30.33S
SYRACUSE       CLOUDY    30  26  85 E5        30.33F WCI  25
ROME           CLOUDY    31  24  75 CALM      30.36S
ELMIRA         CLOUDY    30  23  75 CALM      30.30S
BINGHAMTON     CLOUDY    27  20  75 E3        30.26F
MONTICELLO     CLOUDY    28  25  86 CALM      30.29S
$$

NYZ026>034-041>043-220200-
NORTH


CITY           SKY/WX    TMP DP  RH WIND       PRES   REMARKS
WATERTOWN      CLOUDY    29  20  69 NE5       30.35S WCI  24
FORT DRUM      NOT AVBL
MASSENA        CLOUDY    19  15  84 E5        30.39R WCI  12
SARANAC LAKE   CLOUDY    22  19  89 CALM      30.26R
PLATTSBURGH    CLOUDY    21  18  88 CALM      30.39R FOG
$$

NYZ001>004-010>016-019>021-220200-
WEST


CITY           SKY/WX    TMP DP  RH WIND       PRES   REMARKS
NIAGARA FALLS  CLOUDY    30  21  69 S3        30.30R
BUFFALO        CLOUDY    31  22  69 S5        30.30R WCI  26
DUNKIRK        CLOUDY    31  23  72 SE6       30.29F WCI  25
JAMESTOWN      CLOUDY    27  21  80 E5        30.22F WCI  21
WELLSVILLE     CLOUDY    25  22  88 S7        30.24S WCI  17
ROCHESTER      CLOUDY    32  22  66 S5        30.32R WCI  27
PENN YAN       CLOUDY    31  20  63 CALM      30.30S
$$

             KEY
       WCI = WIND CHILL INDEX
       VSB = VISIBILITY
       HX  = HEAT INDEX
$$


USA.gov is the U.S. government's official web portal to all federal, state and local government web resources and services.